National Weather Service United States Department of Commerce

Calm Midweek, Before Weekend Winter Storm?

The weather pattern remains mostly quiet midweek but this may change by the weekend as confidence is increasing on a winter storm along the East Coast. On Wednesday, expect below normal temperatures for the Eastern half of the U.S., locally heavy snow in the southern Rockies and High Plains, showers and isolated thunderstorms in Florida and air stagnation issues in the Northwest. Read More >

FAA logo - Click to go to the FAA homepage

NY TRACON Strategic Planning Aid (SPA)

For ATC Planning Purposes Only - Page refreshes every 5 minutes - See AviationWeather.gov if data is not current
NWS logo - Click to go to the NWS homepage

Pre-Duty Weather Briefing


YELLOW TABS indicate TAF updated within last 30 minutes. RED TABS indicate TAF updated within last 5 minutes.

  • TAF Board
  • Discussion
  • Current Conditions
  • Snow/Ice

Potential Impact None Slight Moderate High
Valid at: 0900 UTC 26 Jan 2022
TimeOBS26/09Z26/10Z26/11Z26/12Z26/13Z26/14Z26/15Z26/16Z26/17Z26/18Z26/19Z26/20Z26/21Z>>
KJFK                            
KLGA WSpd               WSpd WSpd WSpd WSpd WSpd WSpd
KEWR WSpd               WSpd WSpd WSpd WSpd WSpd WSpd
KTEB                            
KHPN                            
KISP                            
TimeOBS26/09Z26/10Z26/11Z26/12Z26/13Z26/14Z26/15Z26/16Z26/17Z26/18Z26/19Z26/20Z26/21Z

IMPORTANT: ITWS wind directions are magnetic. METAR/TAF winds are true. Add 13 degrees to METAR/TAF wind to get the magnetic direction.

Latest METAR:
METAR KJFK 260851Z 33012KT 10SM FEW060 M04/M15 A3024 RMK AO2 SLP240
     T10441150 51020 $
Latest TAF:

Older TAFs
TAF Impact Board
ITWS Winds (GRAPH)
5-min ASOS Data
Hourly Temperature Forecast
General Public Forecast

IMPORTANT: ITWS wind directions are magnetic. METAR/TAF winds are true. Add 13 degrees to METAR/TAF wind to get the magnetic direction.

Latest METAR:
METAR KLGA 260851Z 32012KT 10SM FEW250 M04/M14 A3023 RMK AO2 SLP236
     T10391144 51017
Latest TAF:

Older TAFs
TAF Impact Board
ITWS Winds (GRAPH)
5-min ASOS Data
Hourly Temperature Forecast
General Public Forecast

IMPORTANT: ITWS wind directions are magnetic. METAR/TAF winds are true. Add 13 degrees to METAR/TAF wind to get the magnetic direction.

Latest METAR:
METAR KEWR 260851Z 33011KT 10SM FEW250 M06/M14 A3024 RMK AO2 SLP241
     T10611139 51018
Latest TAF:

Older TAFs
TAF Impact Board
ITWS Winds (GRAPH)
5-min ASOS Data
Hourly Temperature Forecast
General Public Forecast

IMPORTANT: ITWS wind directions are magnetic. METAR/TAF winds are true. Add 13 degrees to METAR/TAF wind to get the magnetic direction.

Latest METAR:
METAR KTEB 260851Z 32005KT 10SM CLR M06/M14 A3024 RMK AO2 SLP238
     T10611139 51014
Latest TAF:

Older TAFs
TAF Impact Board
5-min ASOS Data
Hourly Temperature Forecast
General Public Forecast

IMPORTANT: ITWS wind directions are magnetic. METAR/TAF winds are true. Add 13 degrees to METAR/TAF wind to get the magnetic direction.

Latest METAR:
METAR KHPN 260756Z 36005KT 10SM CLR M07/M13 A3019 RMK AO2 SLP232
     T10671128
Latest TAF:

Older TAFs
TAF Impact Board
5-min ASOS Data
Hourly Temperature Forecast
General Public Forecast

IMPORTANT: ITWS wind directions are magnetic. METAR/TAF winds are true. Add 13 degrees to METAR/TAF wind to get the magnetic direction.

Latest METAR:
METAR KISP 260756Z AUTO 36010KT 10SM CLR M04/M11 A3019 RMK AO2 SLP225
     T10441111
Latest TAF:

Older TAFs
TAF Impact Board
5-min ASOS Data
Hourly Temperature Forecast
General Public Forecast

 

Forecast Discussion Prepared at 
 
5-Day Outlook
 

 

Click on Radar and Satellite images below for a loop.

Radar Loop

Radar Loop

Regional Flight Category Map

Flight Category

Visible Satellite Loop

Visible Satellite

Infrared Satellite Loop

IR Satellite

Expected Snowfall

Expected Snowfall

Expected Ice Accumulation

Expected Ice Accumulation

Click here for detailed Snow/Ice Info

PIREPs     SIGMETs     AIRMETs     ZNY CWA/MIS     ZBW CWA/MIS

Click on images below to enlarge.

Morning SWAP Statement

(Updated daily April 1 - September 30)

 

Radar Loop

Radar Loop

Convective SIGMETs

Convective SIGMETs

TFM Convective Forecast (TCF)

4-hr TCF

Day 1 SWAP Forecast

Day 1 SWAP Forecast

Day 2 SWAP Outlook

Day 2 SWAP Outlook

Day 3 SWAP Outlook

Day 3 SWAP Outlook

N90 Thunderstorm TDA

N90 Thunderstorm TDA

International Departure Gate Forecast

International Departure Gate Forecast

Domestic Arrival/Departure Fix Forecast

Domestic Arrival/Departure Fix Forecast

N90 Icing TDA

N90 Icing TDA

Current Icing SIGMETs

Icing SIGMETs

Recent Icing PIREPs

Icing PIREPs

00-03 hr Icing AIRMETs

0-3 hr Icing AIRMETs

03-06 hr Icing AIRMETs

3-6 hr Icing AIRMETs

06-09 hr Icing AIRMETs

6-9 hr Icing AIRMETs

 

CIP/FIP Icing Guidance

CIP/FIP Icing Guidance

 

Current Turb SIGMETs

Turb SIGMETs

Recent Turb/LLWS PIREPs

Turb/LLWS PIREPs

Turbulence Guidance (GTG)

GTG

00-03 hr Turb/LLWS AIRMETs

0-3 hr Turb/LLWS AIRMETs

03-06 hr Turb/LLWS AIRMETs

3-6 hr Turb/LLWS AIRMETs

06-09 hr Turb/LLWS AIRMETs

6-9 hr Turb/LLWS AIRMETs

N90 Compression Outlook

N90 Compression Outlook

N90 Compression TDA

N90 Compression TDA